Location: Newark
(48.8604°N, 2.3376°E)
Time: 13:20:41
(UTC+00:00)

Nauka - Visible Passes

Search period start: 24 September 2021 00:00
Search period end: 04 October 2021 00:00
Orbit: 419 x 423 km, 51.6° (Epoch: 23 September)

Date Brightness Start Highest point End Pass type
(mag) Time Alt. Az. Time Alt. Az. Time Alt. Az.
24 Sep ? 19:00:11 10° W 19:03:31 53° N 19:05:32 21° ENE visible
24 Sep ? 20:37:16 10° WNW 20:38:31 21° WNW 20:38:31 21° WNW visible
25 Sep ? 18:13:11 10° W 18:16:32 60° NNW 18:19:53 10° ENE visible
25 Sep ? 19:50:20 10° WNW 19:53:21 52° NNW 19:53:21 52° NNW visible
26 Sep ? 19:03:22 10° WNW 19:06:41 51° N 19:08:10 28° ENE visible
26 Sep ? 20:40:18 10° WNW 20:41:09 17° WNW 20:41:09 17° WNW visible
27 Sep ? 18:16:23 10° WNW 18:19:41 50° N 18:22:59 10° ENE visible
27 Sep ? 19:53:22 10° WNW 19:55:58 50° WNW 19:55:58 50° WNW visible
28 Sep ? 19:06:26 10° WNW 19:09:48 66° NNE 19:10:48 40° E visible
28 Sep ? 20:43:24 10° WNW 20:43:48 13° W 20:43:48 13° W visible
29 Sep ? 18:19:29 10° WNW 18:22:49 56° N 18:25:40 13° E visible
29 Sep ? 19:56:24 10° WNW 19:58:39 36° W 19:58:39 36° W visible
30 Sep ? 19:09:26 10° WNW 19:12:48 75° SSW 19:13:32 50° SE visible
01 Oct ? 18:22:29 10° WNW 18:25:52 83° NNE 18:28:28 16° ESE visible
01 Oct ? 19:59:39 10° W 20:01:28 21° WSW 20:01:28 21° WSW visible
02 Oct ? 19:12:31 10° W 19:15:39 35° SSW 19:16:28 30° S visible
03 Oct ? 18:25:29 10° WNW 18:28:47 51° SSW 18:31:32 14° SE visible
03 Oct ? 20:04:23 10° WSW 20:04:33 10° SW 20:04:33 10° SW visible
